Theta_e
306 307 308 310 310 308 308 309 307 308 311 323 324 324 326 327 327 326 326 326 328 329 332 333 334 337 339 338 339 341 342 345 349 359 361 361 361 361 362 362 362 363 363 363
307 308 307 307 308 309 310 310 308 310 314 326 323 326 324 324 324 324 325 326 328 330 331 332 333 333 335 337 339 339 338 337 340 342 344 346 347 352 359 361 362 363 360 360
305 305 306 304 308 310 312 313 312 311 319 322 320 320 320 321 322 323 324 326 327 329 330 332 333 334 333 335 338 340 340 340 340 340 340 342 342 342 344 348 356 359 362 364
307 306 299 309 314 314 313 312 317 319 321 320 316 315 317 321 320 319 320 321 323 325 326 327 330 332 334 334 335 335 337 338 340 340 338 340 341 341 342 343 345 350 355 361
304 304 305 308 312 314 314 311 317 317 314 314 315 316 316 319 321 321 322 322 324 325 325 327 326 329 330 330 330 329 331 335 338 340 339 340 339 340 342 341 342 344 348 355
302 301 299 309 313 315 317 309 316 316 314 314 317 313 313 319 320 321 322 323 323 324 324 323 324 324 324 324 326 327 329 332 336 339 340 340 341 342 342 342 340 340 344 349
302 302 303 309 311 315 305 309 317 317 318 319 316 318 318 318 318 319 319 318 320 320 320 321 322 322 321 322 322 326 326 328 332 336 338 339 342 344 343 342 341 340 343 346
300 299 297 309 311 309 312 316 315 316 316 315 316 316 315 316 314 315 316 317 318 317 318 321 321 321 320 320 323 325 327 328 329 331 331 331 337 339 342 341 339 338 339 340
301 303 308 310 311 313 315 313 314 314 315 315 314 313 313 313 314 315 316 316 316 316 316 318 319 320 318 321 323 324 325 326 327 329 329 331 332 334 333 337 334 333 330 331
305 306 308 310 313 314 315 313 314 314 313 313 312 312 312 313 313 313 314 313 315 315 315 316 319 319 320 321 323 322 321 325 326 326 327 329 327 327 329 330 329 329 329 329
303 307 308 309 312 312 312 313 313 314 314 313 312 311 311 311 312 313 314 315 316 315 315 316 318 318 320 320 321 320 320 320 321 321 322 325 328 325 325 332 328 329 330 331
305 310 311 310 311 312 312 312 313 311 311 313 312 310 311 311 313 313 313 315 315 315 316 316 317 317 319 320 320 319 318 318 318 318 319 320 323 324 318 316 311 307 306 315
310 313 313 312 313 313 312 312 312 312 312 311 311 312 312 312 314 313 314 315 315 315 315 316 316 316 319 320 320 319 318 319 319 316 319 320 322 323 322 321 309 306 302 303
313 312 309 311 309 312 312 313 312 312 311 311 311 313 313 313 314 314 314 315 315 315 315 316 316 316 319 319 318 318 319 313 318 319 319 319 321 322 325 325 324 326 311 304
311 312 312 312 312 312 313 312 310 309 310 311 313 313 313 312 312 313 314 315 315 315 315 315 313 314 318 318 318 318 317 318 318 319 321 320 321 323 324 324 324 325 325 311
310 310 311 310 310 311 311 310 308 309 310 311 312 313 313 313 313 313 314 313 311 310 313 314 311 312 315 317 319 318 319 316 316 318 318 319 321 321 323 324 323 324 325 325
308 307 308 309 310 310 310 310 310 310 311 312 312 312 312 311 310 310 310 311 312 312 314 313 313 316 315 315 317 317 317 318 317 318 317 320 321 320 322 325 324 323 325 325
313 312 311 311 310 310 310 310 311 311 311 311 312 311 310 309 308 307 307 309 309 310 312 314 313 313 316 317 317 317 317 317 315 314 315 317 321 323 324 323 323 325 327 326
311 311 311 311 312 311 311 311 311 312 311 311 310 310 311 311 310 307 308 308 308 307 308 310 312 313 312 314 315 315 313 314 317 315 315 316 319 319 320 320 322 323 327 327
311 312 312 311 312 311 310 312 312 311 311 312 311 310 310 311 311 310 309 307 308 308 310 309 311 314 315 317 317 316 317 318 316 316 316 316 316 317 318 313 320 321 324 323
311 311 311 312 311 310 311 313 312 310 311 312 311 310 311 312 313 312 309 306 309 311 310 311 310 311 316 318 318 318 318 317 316 315 315 315 316 317 318 320 321 322 319 318
310 311 312 312 311 311 312 314 313 312 312 312 312 312 312 312 313 312 313 310 312 309 310 310 310 311 312 313 313 313 313 312 311 312 311 312 313 313 315 318 317 314 313 313
311 312 313 312 311 313 313 314 315 314 313 313 313 313 313 313 313 309 308 312 313 310 311 310 309 310 310 311 311 311 310 309 310 310 310 310 310 310 311 312 312 311 311 310
313 313 314 313 313 312 312 315 316 316 316 316 316 316 314 312 312 315 315 311 307 308 310 309 308 308 309 309 309 309 308 308 308 309 309 304 308 308 309 309 309 308 308 308
313 314 313 312 312 312 314 315 314 315 316 316 316 316 317 316 311 314 316 316 308 309 313 309 308 308 310 311 310 309 312 311 308 310 308 308 308 307 307 307 306 307 307 307
313 312 312 312 312 313 313 312 312 314 315 315 315 317 316 316 315 315 317 313 314 309 313 314 315 314 310 309 309 309 309 309 311 312 311 308 307 307 307 307 307 307 306 306
312 303 312 312 313 312 312 312 312 313 313 315 314 317 316 315 315 313 310 315 316 311 315 316 317 314 314 310 310 310 310 310 304 310 309 308 307 307 306 306 306 306 307 306
Wind_Speed
1 2 4 5 10 10 7 2 5 6 4 8 8 11 12 13 14 17 18 18 17 17 15 14 14 15 15 15 14 13 14 12 11 9 7 5 4 4 6 6 7 8 9 9
3 2 1 4 3 4 2 2 3 9 8 8 11 13 14 13 14 15 16 16 15 15 14 13 12 12 12 12 11 11 12 12 10 9 9 8 7 8 7 5 4 6 7 8
4 1 1 5 7 5 3 1 1 7 9 15 14 13 11 12 13 14 14 14 14 13 12 9 10 8 9 8 7 8 8 7 6 6 7 7 8 8 9 8 7 7 7 8
2 5 8 6 4 4 7 3 3 12 17 15 15 13 13 11 14 14 13 12 10 9 9 9 8 8 6 6 6 5 5 5 5 6 7 7 7 7 8 8 9 9 10 10
5 9 3 3 6 8 6 4 4 14 18 19 18 18 12 10 10 10 9 7 7 7 6 7 9 9 8 9 8 8 8 8 7 7 7 7 8 9 8 9 9 9 10 12
4 7 12 3 7 2 4 5 10 16 18 18 11 7 6 6 5 6 5 4 5 6 6 6 7 7 8 8 8 9 10 10 10 9 9 9 8 7 6 7 9 9 11 10
9 9 2 3 1 4 9 5 17 17 13 9 4 4 12 7 5 4 4 5 6 6 7 8 9 10 11 10 10 10 11 10 10 10 10 11 11 8 8 8 7 8 11 10
4 7 13 2 4 7 6 13 14 12 11 13 12 10 8 6 4 3 3 5 6 7 7 8 9 8 10 11 12 11 12 11 11 11 10 9 11 11 11 9 9 9 10 10
4 3 5 1 2 8 12 15 12 13 10 10 9 6 4 3 4 5 7 8 9 10 11 11 10 10 13 13 12 12 13 13 12 12 11 11 11 11 10 10 9 10 10 9
6 3 7 9 10 11 12 13 11 9 8 7 6 4 3 3 5 7 8 10 10 12 13 14 12 12 13 14 13 14 15 14 12 12 12 12 10 9 10 10 10 11 11 11
4 5 6 5 9 11 11 10 9 8 7 6 3 3 3 6 7 8 9 9 10 11 13 15 15 15 15 15 15 15 15 15 15 13 14 12 11 11 11 11 11 11 11 11
4 13 1 11 9 8 8 8 7 6 5 5 5 6 6 7 8 9 11 12 12 14 14 16 16 16 16 16 16 16 16 13 12 12 12 12 11 12 13 17 10 11 13 10
4 14 7 14 10 7 7 6 5 4 4 4 6 6 9 10 11 12 12 13 14 15 15 16 17 17 16 16 16 16 16 16 13 12 12 11 11 11 12 11 12 12 14 14
14 15 11 9 6 6 6 5 5 4 4 5 6 9 10 12 14 14 15 16 16 17 18 18 18 19 18 17 15 17 17 16 13 12 12 12 12 12 11 11 10 9 9 12
8 5 10 10 9 6 5 4 1 3 5 6 8 10 12 14 15 16 16 16 17 19 19 18 17 18 19 18 16 16 15 13 12 12 12 12 12 12 11 12 10 7 5 4
9 12 11 9 7 6 4 3 3 4 5 7 10 12 13 14 16 16 17 16 15 16 20 18 17 17 17 17 17 15 13 18 16 13 12 12 12 12 12 12 11 9 8 9
14 9 8 6 6 6 5 2 2 4 5 7 10 12 13 14 15 15 14 14 14 16 17 16 19 17 15 15 17 12 11 11 16 11 10 11 12 13 12 11 11 11 11 10
8 8 7 6 6 5 4 2 1 2 4 5 6 8 10 12 13 13 14 15 15 16 16 14 16 16 18 17 15 12 11 10 9 10 9 10 11 11 11 11 10 9 9 10
11 10 8 6 5 4 2 1 2 2 3 1 5 7 8 10 12 13 12 13 13 13 16 18 26 23 15 16 16 9 9 11 9 7 8 10 11 10 10 10 8 8 10 9
10 8 7 6 4 3 3 3 3 4 3 2 5 7 10 12 13 14 13 13 11 10 16 17 19 14 12 12 14 8 8 8 8 8 7 7 7 7 7 8 10 9 11 8
8 6 6 6 4 3 3 4 4 4 4 5 6 8 11 13 13 13 14 10 16 17 16 18 14 11 9 10 6 5 5 5 5 5 4 5 6 8 9 9 9 8 6 6
6 5 5 5 4 3 4 4 4 5 6 6 7 9 13 13 12 12 12 10 11 17 12 10 10 17 11 13 6 6 5 5 4 5 5 6 7 7 7 8 5 5 4 5
4 3 4 4 4 3 3 5 5 6 8 8 8 9 9 9 8 8 8 11 9 12 8 8 16 20 18 7 6 6 7 7 7 6 6 6 6 5 4 1 2 3 4 4
4 5 4 4 3 4 4 4 5 6 7 8 7 7 7 7 9 5 6 8 9 10 6 7 10 16 13 7 7 7 6 6 5 5 5 7 5 5 5 4 4 5 5 6
3 3 3 4 5 4 5 5 6 6 6 6 6 5 5 4 6 8 7 7 9 7 7 8 11 8 5 7 9 7 7 6 6 5 6 6 6 6 6 5 6 6 6 6
4 3 3 4 4 4 4 4 5 6 5 6 5 3 4 5 6 6 6 7 7 8 8 9 8 7 4 4 5 6 6 6 7 7 8 6 6 6 6 6 6 6 7 8
3 2 3 4 3 4 4 4 5 7 5 5 6 6 4 6 6 7 8 8 7 5 5 8 7 6 5 4 3 3 4 5 7 8 7 6 6 6 6 6 7 7 7 7
Wind_Direction
199 311 237 213 187 178 208 184 232 127 133 119 103 101 92 91 84 79 78 73 69 69 66 58 57 58 57 55 51 55 65 62 51 44 41 32 344 300 265 253 261 265 264 258
170 113 159 192 138 164 176 144 150 144 120 139 123 116 105 96 93 84 79 76 73 71 66 57 53 55 58 56 51 54 55 57 53 48 38 31 16 4 354 349 309 272 260 257
211 10 138 226 199 188 136 138 219 196 139 148 131 112 102 100 86 82 77 73 68 63 60 47 48 34 49 47 42 51 52 48 42 39 32 19 10 6 352 348 346 327 294 275
179 160 221 41 286 219 131 92 146 123 142 136 120 105 91 85 94 88 81 72 62 57 47 31 30 26 19 26 26 25 30 22 16 12 11 3 356 354 340 339 340 332 318 301
219 219 32 220 182 171 203 134 153 139 136 132 127 111 83 84 82 86 76 64 51 41 30 15 10 0 1 359 352 352 352 344 342 338 334 332 325 330 334 332 334 332 323 310
164 235 238 92 138 219 185 184 161 150 146 147 159 149 139 136 105 93 77 59 24 354 333 354 354 348 339 346 334 335 333 327 318 309 297 288 287 294 299 309 317 323 318 310
218 242 203 141 115 175 205 125 156 161 156 164 155 59 125 134 104 65 37 16 357 348 340 336 335 340 333 325 312 312 308 305 302 299 295 291 291 283 281 290 301 310 307 303
205 232 243 78 157 218 101 116 123 122 116 115 114 112 119 115 78 45 14 348 337 320 312 308 303 303 293 288 288 294 288 284 282 282 282 286 281 278 274 279 291 298 299 295
273 15 354 337 50 118 121 113 111 112 106 109 113 101 88 57 15 356 336 329 323 313 306 298 294 287 287 285 290 288 282 274 274 277 276 271 272 276 276 273 279 283 287 287
188 106 88 101 105 100 105 104 103 102 101 92 97 81 47 5 339 323 316 310 310 307 303 302 306 302 294 296 296 292 289 283 277 275 274 277 276 270 268 267 270 273 274 277
89 141 132 118 115 112 104 104 105 102 108 105 97 71 354 332 326 322 316 311 308 301 298 297 300 298 299 299 297 290 286 285 283 281 277 275 268 272 268 259 259 270 270 272
185 168 136 153 141 132 119 112 104 105 99 72 34 0 339 319 312 306 306 305 300 295 292 291 290 289 289 287 286 288 289 285 282 286 282 279 277 276 241 239 235 236 252 254
142 151 127 133 137 137 118 115 99 83 56 1 353 337 325 316 307 306 295 298 298 300 298 294 289 286 285 283 281 281 280 284 284 275 273 274 274 275 275 257 223 241 236 235
133 125 116 149 142 118 107 107 98 62 14 339 326 322 317 312 309 309 306 307 307 303 299 296 292 290 290 287 281 279 277 270 273 271 271 272 270 273 275 271 270 275 235 226
106 101 131 121 116 122 116 123 95 337 335 320 324 319 318 314 307 306 307 307 305 302 299 298 291 286 282 281 273 269 273 275 277 274 269 269 272 270 265 270 269 258 259 216
112 103 114 127 134 143 158 176 265 314 325 326 323 321 317 310 308 309 309 308 304 300 300 297 293 290 288 277 280 277 271 264 263 273 274 269 265 261 263 262 267 260 251 251
126 129 130 146 170 184 198 200 260 319 321 322 326 327 325 324 315 315 309 306 301 300 304 301 299 304 292 280 278 281 277 273 262 263 261 262 261 257 255 261 266 270 259 252
129 136 148 146 167 170 174 174 218 288 320 333 340 343 349 337 338 328 321 318 312 310 319 320 311 301 294 291 283 276 278 272 261 251 251 254 258 259 256 257 262 264 265 262
132 131 130 138 149 154 165 204 211 250 268 307 342 347 337 342 345 334 331 320 316 323 323 319 315 310 293 280 278 271 266 267 256 248 248 251 258 260 261 261 255 253 254 253
129 131 139 145 148 158 171 195 214 232 214 301 317 321 330 338 341 339 335 333 326 325 319 320 323 317 295 294 285 266 268 270 261 257 270 262 252 251 243 241 252 244 249 240
147 150 160 160 155 174 206 210 230 233 264 282 296 323 327 327 332 335 338 338 337 335 329 329 332 329 332 331 315 303 314 317 301 288 278 265 261 254 248 244 242 243 229 208
158 166 167 163 179 209 220 226 237 251 273 286 301 317 320 322 333 335 337 344 333 332 332 339 336 339 346 357 350 356 359 357 349 338 327 318 302 289 270 254 232 203 176 167
167 178 186 187 204 221 227 236 247 258 275 289 304 313 315 318 328 316 325 348 336 339 341 349 348 355 354 356 359 4 4 1 357 348 340 333 322 315 306 256 146 127 132 134
189 204 204 198 205 217 245 245 253 265 269 282 282 290 304 331 320 309 300 297 313 330 319 334 353 354 351 352 1 12 3 3 353 350 349 353 351 349 11 20 55 71 90 99
202 201 201 206 212 233 263 282 287 278 278 285 281 295 318 309 266 306 314 297 286 301 313 306 318 346 348 349 2 356 19 17 1 5 9 11 13 21 27 42 58 66 65 72
209 222 210 217 251 260 278 278 272 284 286 292 305 335 316 307 300 301 320 315 294 290 300 311 319 318 304 318 337 347 348 356 5 34 31 27 30 32 41 49 56 54 75 74
227 230 219 236 243 251 251 279 287 289 293 283 295 296 291 301 305 316 325 335 349 324 332 326 333 323 310 295 302 307 337 27 23 30 30 31 36 41 44 52 59 60 60 72